모두
Moree Hospital Airport YXEE 기상
There is no TAF data available at YXEE. Showing TAF data for YMOR (2 mi 남).
MRZ 터미널 지역 예측(YXEE에 대한 데이터 없음)
| Here is the undecoded forecast: 2026/05/08 18:13 YMOR 081813Z 0820/0908 17006KT CAVOK PROB30 0820/0821 0500 FG RMK T 06 14 20 22 Q 1023 1024 1023 1022 |
There is no METAR data available at YXEE. Showing METAR data for YMOR (2 mi 남).
최근 MRZ METAR 이력(YXEE에 대한 데이터 없음)
| Date | Time (AEST) | Flight Rules | Wind Dir. | Speed | Type | Height AGL (ft) | Visibility | Temp (°C) | Temp (°F) | Dew Point (°C) | Dew Point (°F) | Rel. Humid. | Pressure | Density Altitude | Remarks |
|---|---|---|---|---|---|---|---|---|---|---|---|---|---|---|---|
| 09-5월 | 05:00 | VFR | 260° | 5 kt | 10000 meters | 5° | 41° | 4° | 39° | 93% | 1022 mb | -759 ft | |||
| 09-5월 | 04:00 | VFR | 250° | 6 kt | 10000 meters | 6° | 42° | 4° | 39° | 87% | 1022 mb | -639 ft | |||
| 09-5월 | 03:00 | VFR | 210° | 4 kt | 10000 meters | 6° | 42° | 4° | 39° | 87% | 1023 mb | -668 ft | |||
| 09-5월 | 02:00 | VFR | 150° | 6 kt | 10000 meters | 7° | 44° | 4° | 39° | 81% | 1022 mb | -519 ft | |||
| 09-5월 | 01:00 | VFR | 220° | 6 kt | 10000 meters | 7° | 44° | 4° | 39° | 81% | 1023 mb | -548 ft | |||
| 09-5월 | 00:00 | VFR | 220° | 9 kt | 10000 meters | 8° | 46° | 4° | 39° | 76% | 1023 mb | -428 ft | |||
| 08-5월 | 23:00 | VFR | 220° | 8 kt | 10000 meters | 9° | 48° | 4° | 39° | 71% | 1023 mb | -308 ft | |||
| 08-5월 | 22:00 | VFR | 230° | 7 kt | 10000 meters | 9° | 48° | 3° | 37° | 66% | 1023 mb | -308 ft | |||
| 08-5월 | 21:00 | VFR | 220° | 9 kt | 10000 meters | 10° | 50° | 3° | 37° | 62% | 1023 mb | -188 ft | |||
| 08-5월 | 20:00 | VFR | 240° | 7 kt | 10000 meters | 11° | 51° | 3° | 37° | 58% | 1023 mb | -68 ft | |||
| 08-5월 | 19:00 | VFR | 240° | 7 kt | 10000 meters | 13° | 55° | 4° | 39° | 54% | 1022 mb | 201 ft | |||
| 08-5월 | 18:00 | VFR | 220° | 8 kt | 10000 meters | 14° | 57° | 3° | 37° | 47% | 1022 mb | 321 ft | |||
| 08-5월 | 17:00 | VFR | 220° | 15 kt | 10000 meters | 17° | 62° | 4° | 39° | 42% | 1021 mb | 711 ft | |||
| 08-5월 | 16:00 | VFR | 220° | 16 kt | 10000 meters | 18° | 64° | 4° | 39° | 39% | 1021 mb | 831 ft | |||
| 08-5월 | 15:00 | VFR | 210° | 18 kt | 10000 meters | 18° | 64° | 3° | 37° | 37% | 1021 mb | 831 ft | |||
| 08-5월 | 14:00 | VFR | 210° | 15 kt | 10000 meters | 18° | 64° | 2° | 35° | 34% | 1021 mb | 831 ft | |||
| 08-5월 | 13:00 | VFR | 220° | 18 kt | 10000 meters | 17° | 62° | 3° | 37° | 39% | 1022 mb | 681 ft | |||
| 08-5월 | 12:00 | VFR | 210° | 19 kt | 10000 meters | 17° | 62° | 3° | 37° | 39% | 1023 mb | 652 ft | |||
| 08-5월 | 11:00 | VFR | 200° | 17 kt | 10000 meters | 15° | 59° | 3° | 37° | 44% | 1023 mb | 412 ft | |||
| 08-5월 | 10:00 | VFR | 200° | 19 kt | 10000 meters | 13° | 55° | 3° | 37° | 51% | 1024 mb | 142 ft | |||
| 08-5월 | 09:00 | VFR | 210° | 15 kt | 10000 meters | 11° | 51° | 2° | 35° | 54% | 1025 mb | -127 ft | |||
| 08-5월 | 08:00 | VFR | 230° | 11 kt | 10000 meters | 7° | 44° | 0° | 32° | 61% | 1025 mb | -607 ft | |||
| 08-5월 | 07:00 | VFR | 250° | 7 kt | 10000 meters | 3° | 37° | -1° | 30° | 75% | 1024 mb | -1,058 ft | |||
| 08-5월 | 06:00 | VFR | 260° | 6 kt | 10000 meters | 3° | 37° | -1° | 30° | 75% | 1024 mb | -1,058 ft |
로그인
| 귀하의 브라우저는 지원되지 않습니다.. 브라우저를 업그레이드하세요 |
